Time,TemperatureF,DewpointF,PressureIn,WindDirection,WindDirectionDegrees,WindSpeedMPH,WindSpeedGustMPH,Humidity,HourlyPrecipIn,Conditions,Clouds,dailyrainin,SoftwareType,DateUTC
2013-11-12 00:00:00,50.8,35.2,30.02,South,181,3.0,3.0,55,0.00,,,0.00,Wunderground v.1.15,2013-11-12 05:00:00,
2013-11-12 00:05:00,50.8,35.2,30.02,South,190,3.0,10.0,55,0.00,,,0.00,Wunderground v.1.15,2013-11-12 05:05:00,
2013-11-12 00:10:00,50.8,35.2,30.02,SSW,210,3.0,3.0,55,0.00,,,0.00,Wunderground v.1.15,2013-11-12 05:10:00,
2013-11-12 00:15:00,50.7,35.1,30.01,South,188,3.0,10.0,55,0.00,,,0.00,Wunderground v.1.15,2013-11-12 05:15:00,
2013-11-12 00:20:00,50.6,35.0,30.01,WSW,239,3.0,3.0,55,0.00,,,0.00,Wunderground v.1.15,2013-11-12 05:20:00,
2013-11-12 00:25:00,50.6,35.5,30.02,WSW,237,2.0,10.0,56,0.00,,,0.00,Wunderground v.1.15,2013-11-12 05:25:00,
2013-11-12 00:35:00,50.5,35.4,30.01,SW,223,2.0,10.0,56,0.00,,,0.00,Wunderground v.1.15,2013-11-12 05:35:00,
2013-11-12 00:40:00,50.4,35.3,30.01,SW,222,1.0,10.0,56,0.00,,,0.00,Wunderground v.1.15,2013-11-12 05:40:00,
2013-11-12 00:45:00,50.4,35.3,30.01,SW,220,0.0,10.0,56,0.00,,,0.00,Wunderground v.1.15,2013-11-12 05:45:00,
2013-11-12 00:50:00,50.4,35.3,30.01,SW,220,1.0,1.0,56,0.00,,,0.00,Wunderground v.1.15,2013-11-12 05:50:00,
2013-11-12 00:55:00,50.4,35.3,30.01,SW,219,0.0,10.0,56,0.00,,,0.00,Wunderground v.1.15,2013-11-12 05:55:00,
2013-11-12 01:05:00,50.3,35.2,30.00,SW,235,0.0,10.0,56,0.00,,,0.00,Wunderground v.1.15,2013-11-12 06:05:00,
2013-11-12 01:10:00,50.2,35.1,30.00,SW,235,0.0,10.0,56,0.00,,,0.00,Wunderground v.1.15,2013-11-12 06:10:00,
2013-11-12 01:20:00,50.1,35.4,30.00,SW,234,0.0,10.0,57,0.00,,,0.00,Wunderground v.1.15,2013-11-12 06:20:00,
2013-11-12 01:25:00,50.0,35.4,30.01,SW,235,0.0,10.0,57,0.00,,,0.00,Wunderground v.1.15,2013-11-12 06:25:00,
2013-11-12 01:30:00,49.9,35.3,30.00,SW,235,0.0,10.0,57,0.00,,,0.00,Wunderground v.1.15,2013-11-12 06:30:00,
2013-11-12 01:35:00,49.8,35.6,30.00,SW,234,0.0,10.0,58,0.00,,,0.00,Wunderground v.1.15,2013-11-12 06:35:00,
2013-11-12 01:45:00,49.5,35.8,30.00,SW,234,0.0,10.0,59,0.00,,,0.00,Wunderground v.1.15,2013-11-12 06:45:00,
2013-11-12 01:50:00,49.3,36.0,30.01,SW,235,0.0,10.0,60,0.00,,,0.00,Wunderground v.1.15,2013-11-12 06:50:00,
2013-11-12 01:55:00,49.2,35.9,30.00,SW,235,0.0,10.0,60,0.00,,,0.00,Wunderground v.1.15,2013-11-12 06:55:00,
2013-11-12 02:00:00,49.0,35.7,30.00,SW,234,0.0,10.0,60,0.00,,,0.00,Wunderground v.1.15,2013-11-12 07:00:00,
2013-11-12 02:05:00,48.9,35.6,30.00,SW,235,0.0,10.0,60,0.00,,,0.00,Wunderground v.1.15,2013-11-12 07:05:00,
2013-11-12 02:15:00,48.8,36.4,30.01,SW,234,0.0,10.0,62,0.00,,,0.00,Wunderground v.1.15,2013-11-12 07:15:00,
2013-11-12 02:20:00,48.7,35.8,30.01,SW,235,0.0,10.0,61,0.00,,,0.00,Wunderground v.1.15,2013-11-12 07:20:00,
2013-11-12 02:25:00,48.7,35.4,30.00,SW,234,0.0,10.0,60,0.00,,,0.00,Wunderground v.1.15,2013-11-12 07:25:00,
2013-11-12 02:30:00,48.7,35.4,30.00,SW,235,0.0,10.0,60,0.00,,,0.00,Wunderground v.1.15,2013-11-12 07:30:00,
2013-11-12 02:40:00,48.8,35.1,30.01,SW,234,0.0,10.0,59,0.00,,,0.00,Wunderground v.1.15,2013-11-12 07:40:00,
2013-11-12 02:45:00,48.8,35.9,30.01,SW,235,0.0,10.0,61,0.00,,,0.00,Wunderground v.1.15,2013-11-12 07:45:00,
2013-11-12 02:50:00,48.9,34.8,30.01,SW,235,0.0,10.0,58,0.00,,,0.00,Wunderground v.1.15,2013-11-12 07:50:00,
2013-11-12 02:55:00,48.9,36.0,30.01,SW,235,0.0,10.0,61,0.00,,,0.00,Wunderground v.1.15,2013-11-12 07:55:00,
2013-11-12 03:00:00,48.7,35.8,30.01,SW,235,0.0,10.0,61,0.00,,,0.00,Wunderground v.1.15,2013-11-12 08:00:00,
2013-11-12 03:10:00,48.6,36.2,30.00,SW,235,0.0,10.0,62,0.00,,,0.00,Wunderground v.1.15,2013-11-12 08:10:00,
2013-11-12 03:15:00,48.5,35.7,30.00,SW,235,0.0,10.0,61,0.00,,,0.00,Wunderground v.1.15,2013-11-12 08:15:00,
2013-11-12 03:20:00,48.5,36.5,30.00,SW,234,0.0,10.0,63,0.00,,,0.00,Wunderground v.1.15,2013-11-12 08:20:00,
2013-11-12 03:25:00,48.4,36.8,30.00,SW,235,0.0,10.0,64,0.00,,,0.00,Wunderground v.1.15,2013-11-12 08:25:00,
2013-11-12 03:35:00,48.4,35.6,30.00,SW,234,0.0,10.0,61,0.00,,,0.00,Wunderground v.1.15,2013-11-12 08:35:00,
2013-11-12 03:40:00,48.4,35.1,30.00,SW,235,0.0,10.0,60,0.00,,,0.00,Wunderground v.1.15,2013-11-12 08:40:00,
2013-11-12 03:45:00,48.5,35.2,30.00,SW,234,0.0,10.0,60,0.00,,,0.00,Wunderground v.1.15,2013-11-12 08:45:00,
2013-11-12 03:50:00,48.5,36.5,30.01,SW,235,0.0,10.0,63,0.00,,,0.00,Wunderground v.1.15,2013-11-12 08:50:00,
2013-11-12 03:55:00,48.3,35.5,30.00,SW,235,0.0,10.0,61,0.00,,,0.00,Wunderground v.1.15,2013-11-12 08:55:00,
2013-11-12 04:05:00,48.3,35.9,30.01,SW,234,0.0,10.0,62,0.00,,,0.00,Wunderground v.1.15,2013-11-12 09:05:00,
2013-11-12 04:10:00,48.3,35.5,30.01,SW,234,0.0,10.0,61,0.00,,,0.00,Wunderground v.1.15,2013-11-12 09:10:00,
2013-11-12 04:15:00,48.3,35.0,30.01,SW,234,0.0,10.0,60,0.00,,,0.00,Wunderground v.1.15,2013-11-12 09:15:00,
2013-11-12 04:20:00,48.3,35.9,30.00,SW,235,0.0,10.0,62,0.00,,,0.00,Wunderground v.1.15,2013-11-12 09:20:00,
2013-11-12 04:25:00,48.3,35.9,30.01,SW,234,0.0,10.0,62,0.00,,,0.00,Wunderground v.1.15,2013-11-12 09:25:00,
2013-11-12 04:35:00,47.8,36.2,30.01,SW,235,0.0,10.0,64,0.00,,,0.00,Wunderground v.1.15,2013-11-12 09:35:00,
2013-11-12 04:40:00,47.7,36.5,30.01,SW,235,0.0,10.0,65,0.00,,,0.00,Wunderground v.1.15,2013-11-12 09:40:00,
2013-11-12 04:45:00,47.8,35.4,30.01,SW,235,0.0,10.0,62,0.00,,,0.00,Wunderground v.1.15,2013-11-12 09:45:00,
2013-11-12 04:50:00,48.0,34.8,30.01,SW,234,0.0,10.0,60,0.00,,,0.00,Wunderground v.1.15,2013-11-12 09:50:00,
2013-11-12 04:55:00,48.3,36.7,30.01,SW,234,0.0,10.0,64,0.00,,,0.00,Wunderground v.1.15,2013-11-12 09:55:00,
2013-11-12 05:05:00,48.3,35.5,30.01,SW,235,0.0,10.0,61,0.00,,,0.00,Wunderground v.1.15,2013-11-12 10:05:00,
2013-11-12 05:10:00,48.5,36.5,30.02,SW,235,0.0,10.0,63,0.00,,,0.00,Wunderground v.1.15,2013-11-12 10:10:00,
2013-11-12 05:20:00,48.8,35.1,30.02,SW,235,0.0,10.0,59,0.00,,,0.00,Wunderground v.1.15,2013-11-12 10:20:00,
2013-11-12 05:25:00,49.2,35.0,30.02,SW,234,0.0,10.0,58,0.00,,,0.00,Wunderground v.1.15,2013-11-12 10:25:00,
2013-11-12 05:30:00,49.5,35.3,30.02,WSW,240,1.0,10.0,58,0.00,,,0.00,Wunderground v.1.15,2013-11-12 10:30:00,
2013-11-12 05:35:00,49.7,35.5,30.02,NW,315,2.0,10.0,58,0.00,,,0.00,Wunderground v.1.15,2013-11-12 10:35:00,
2013-11-12 05:40:00,49.9,36.1,30.02,NW,315,2.0,2.0,59,0.00,,,0.00,Wunderground v.1.15,2013-11-12 10:40:00,
2013-11-12 05:50:00,50.0,37.1,30.03,NW,322,2.0,10.0,61,0.00,,,0.00,Wunderground v.1.15,2013-11-12 10:50:00,
2013-11-12 05:55:00,50.1,38.0,30.04,NNW,340,3.0,14.0,63,0.00,,,0.00,Wunderground v.1.15,2013-11-12 10:55:00,
2013-11-12 06:00:00,50.2,38.5,30.04,NW,306,4.0,4.0,64,0.00,,,0.00,Wunderground v.1.15,2013-11-12 11:00:00,
2013-11-12 06:05:00,50.1,38.8,30.05,NW,310,3.0,6.0,65,0.00,,,0.00,Wunderground v.1.15,2013-11-12 11:05:00,
2013-11-12 06:15:00,49.8,39.7,30.05,NW,315,4.0,10.0,68,0.00,,,0.00,Wunderground v.1.15,2013-11-12 11:15:00,
2013-11-12 06:20:00,49.5,40.1,30.06,NW,318,6.0,6.0,70,0.00,,,0.00,Wunderground v.1.15,2013-11-12 11:20:00,
2013-11-12 06:25:00,49.0,40.4,30.07,NNW,327,6.0,10.0,72,0.00,,,0.00,Wunderground v.1.15,2013-11-12 11:25:00,
2013-11-12 06:30:00,48.4,40.1,30.07,North,355,5.0,5.0,73,0.00,,,0.00,Wunderground v.1.15,2013-11-12 11:30:00,
2013-11-12 06:35:00,47.9,39.3,30.07,WNW,296,6.0,11.0,72,0.00,,,0.00,Wunderground v.1.15,2013-11-12 11:35:00,
2013-11-12 06:45:00,47.0,38.8,30.09,NW,311,8.0,13.0,73,0.00,,,0.00,Wunderground v.1.15,2013-11-12 11:45:00,
2013-11-12 06:50:00,46.8,38.2,30.09,North,350,6.0,6.0,72,0.00,,,0.00,Wunderground v.1.15,2013-11-12 11:50:00,
2013-11-12 06:55:00,46.6,38.1,30.09,WNW,303,5.0,10.0,72,0.00,,,0.00,Wunderground v.1.15,2013-11-12 11:55:00,
2013-11-12 07:00:00,46.3,37.8,30.10,NW,316,5.0,5.0,72,0.00,,,0.00,Wunderground v.1.15,2013-11-12 12:00:00,
2013-11-12 07:10:00,45.8,37.3,30.11,NNE,22,6.0,6.0,72,0.00,,,0.00,Wunderground v.1.15,2013-11-12 12:10:00,
2013-11-12 07:15:00,45.6,37.4,30.12,NW,315,7.0,19.0,73,0.00,,,0.00,Wunderground v.1.15,2013-11-12 12:15:00,
2013-11-12 07:20:00,45.2,36.7,30.12,NW,315,9.0,17.0,72,0.00,,,0.00,Wunderground v.1.15,2013-11-12 12:20:00,
2013-11-12 07:25:00,45.0,36.5,30.13,NNE,20,10.0,17.0,72,0.00,,,0.00,Wunderground v.1.15,2013-11-12 12:25:00,
2013-11-12 07:35:00,44.5,36.4,30.14,WNW,295,9.0,12.0,73,0.00,,,0.00,Wunderground v.1.15,2013-11-12 12:35:00,
2013-11-12 07:40:00,44.3,35.8,30.15,NNW,331,8.0,8.0,72,0.00,,,0.00,Wunderground v.1.15,2013-11-12 12:40:00,
2013-11-12 07:45:00,44.1,35.6,30.15,NW,323,7.0,11.0,72,0.00,,,0.00,Wunderground v.1.15,2013-11-12 12:45:00,
2013-11-12 07:50:00,43.9,35.8,30.17,WNW,287,6.0,10.0,73,0.00,,,0.00,Wunderground v.1.15,2013-11-12 12:50:00,
2013-11-12 07:55:00,43.8,35.7,30.17,North,355,5.0,10.0,73,0.00,,,0.00,Wunderground v.1.15,2013-11-12 12:55:00,
2013-11-12 08:05:00,43.4,34.6,30.18,NW,307,3.0,4.0,71,0.00,,,0.00,Wunderground v.1.15,2013-11-12 13:05:00,
2013-11-12 08:10:00,43.3,34.9,30.18,NW,307,4.0,10.0,72,0.00,,,0.00,Wunderground v.1.15,2013-11-12 13:10:00,
2013-11-12 08:15:00,42.6,34.5,30.18,WNW,303,7.0,14.0,73,0.00,,,0.00,Wunderground v.1.15,2013-11-12 13:15:00,
2013-11-12 08:20:00,42.2,32.8,30.18,NW,317,10.0,10.0,69,0.00,,,0.00,Wunderground v.1.15,2013-11-12 13:20:00,
2013-11-12 08:25:00,41.9,31.7,30.19,WNW,288,10.0,11.0,67,0.00,,,0.00,Wunderground v.1.15,2013-11-12 13:25:00,
2013-11-12 08:35:00,41.4,30.1,30.20,WNW,300,7.0,19.0,64,0.00,,,0.00,Wunderground v.1.15,2013-11-12 13:35:00,
2013-11-12 08:40:00,41.1,29.8,30.20,NW,309,7.0,12.0,64,0.00,,,0.00,Wunderground v.1.15,2013-11-12 13:40:00,
2013-11-12 08:45:00,40.9,29.3,30.20,WNW,288,8.0,12.0,63,0.00,,,0.00,Wunderground v.1.15,2013-11-12 13:45:00,
2013-11-12 08:50:00,40.7,29.5,30.21,WNW,293,7.0,10.0,64,0.00,,,0.00,Wunderground v.1.15,2013-11-12 13:50:00,
2013-11-12 08:55:00,40.6,29.7,30.21,NW,317,6.0,10.0,65,0.00,,,0.00,Wunderground v.1.15,2013-11-12 13:55:00,
2013-11-12 09:05:00,40.5,30.0,30.22,NW,319,3.0,10.0,66,0.00,,,0.00,Wunderground v.1.15,2013-11-12 14:05:00,
2013-11-12 09:10:00,40.4,30.3,30.22,WSW,254,4.0,4.0,67,0.00,,,0.00,Wunderground v.1.15,2013-11-12 14:10:00,
2013-11-12 09:15:00,40.2,30.5,30.23,WNW,298,5.0,10.0,68,0.00,,,0.00,Wunderground v.1.15,2013-11-12 14:15:00,
2013-11-12 09:20:00,40.3,30.6,30.23,NW,314,3.0,10.0,68,0.00,,,0.00,Wunderground v.1.15,2013-11-12 14:20:00,
2013-11-12 09:30:00,40.2,30.8,30.23,WNW,303,2.0,10.0,69,0.00,,,0.00,Wunderground v.1.15,2013-11-12 14:30:00,
2013-11-12 09:35:00,40.1,30.7,30.23,NNW,346,3.0,10.0,69,0.00,,,0.00,Wunderground v.1.15,2013-11-12 14:35:00,
2013-11-12 09:40:00,39.9,30.5,30.24,NW,309,4.0,10.0,69,0.00,,,0.00,Wunderground v.1.15,2013-11-12 14:40:00,
2013-11-12 09:45:00,39.7,30.7,30.24,NW,304,5.0,10.0,70,0.00,,,0.00,Wunderground v.1.15,2013-11-12 14:45:00,
2013-11-12 09:55:00,39.5,30.5,30.24,North,355,5.0,10.0,70,0.00,,,0.00,Wunderground v.1.15,2013-11-12 14:55:00,
2013-11-12 10:00:00,39.3,30.3,30.24,NE,46,6.0,6.0,70,0.00,,,0.00,Wunderground v.1.15,2013-11-12 15:00:00,
2013-11-12 10:05:00,39.2,30.2,30.24,NW,319,5.0,10.0,70,0.00,,,0.00,Wunderground v.1.15,2013-11-12 15:05:00,
2013-11-12 10:10:00,39.1,29.4,30.25,WNW,302,5.0,10.0,68,0.00,,,0.00,Wunderground v.1.15,2013-11-12 15:10:00,
2013-11-12 10:15:00,39.0,29.0,30.26,NW,310,5.0,10.0,67,0.00,,,0.00,Wunderground v.1.15,2013-11-12 15:15:00,
2013-11-12 10:25:00,38.8,27.7,30.26,West,275,4.0,10.0,64,0.00,,,0.00,Wunderground v.1.15,2013-11-12 15:25:00,
2013-11-12 10:30:00,38.6,27.8,30.26,North,355,4.0,4.0,65,0.00,,,0.00,Wunderground v.1.15,2013-11-12 15:30:00,
2013-11-12 10:35:00,38.4,26.9,30.26,NW,306,5.0,9.0,63,0.00,,,0.00,Wunderground v.1.15,2013-11-12 15:35:00,
2013-11-12 10:40:00,38.3,27.2,30.26,NW,313,5.0,5.0,64,0.00,,,0.00,Wunderground v.1.15,2013-11-12 15:40:00,
2013-11-12 10:45:00,38.2,26.7,30.27,NW,309,5.0,10.0,63,0.00,,,0.00,Wunderground v.1.15,2013-11-12 15:45:00,
2013-11-12 10:55:00,38.3,24.8,30.26,NW,323,3.0,10.0,58,0.00,,,0.00,Wunderground v.1.15,2013-11-12 15:55:00,
2013-11-12 11:00:00,38.2,23.9,30.27,North,9,5.0,5.0,56,0.00,,,0.00,Wunderground v.1.15,2013-11-12 16:00:00,
2013-11-12 11:05:00,38.2,23.4,30.26,NNE,26,4.0,10.0,55,0.00,,,0.00,Wunderground v.1.15,2013-11-12 16:05:00,
2013-11-12 11:10:00,38.2,23.9,30.27,NW,307,2.0,10.0,56,0.00,,,0.00,Wunderground v.1.15,2013-11-12 16:10:00,
2013-11-12 11:20:00,38.1,24.6,30.28,NNW,337,4.0,11.0,58,0.00,,,0.00,Wunderground v.1.15,2013-11-12 16:20:00,
2013-11-12 11:25:00,38.0,23.7,30.27,NW,319,5.0,11.0,56,0.00,,,0.00,Wunderground v.1.15,2013-11-12 16:25:00,
2013-11-12 11:30:00,37.9,22.7,30.27,NW,323,5.0,10.0,54,0.00,,,0.00,Wunderground v.1.15,2013-11-12 16:30:00,
2013-11-12 11:35:00,37.9,23.2,30.26,NNE,26,5.0,10.0,55,0.00,,,0.00,Wunderground v.1.15,2013-11-12 16:35:00,
2013-11-12 11:40:00,37.9,23.2,30.27,WNW,300,4.0,10.0,55,0.00,,,0.00,Wunderground v.1.15,2013-11-12 16:40:00,
2013-11-12 11:50:00,37.8,22.6,30.27,WNW,286,4.0,4.0,54,0.00,,,0.00,Wunderground v.1.15,2013-11-12 16:50:00,
2013-11-12 11:55:00,37.7,21.6,30.27,NW,304,6.0,16.0,52,0.00,,,0.00,Wunderground v.1.15,2013-11-12 16:55:00,
2013-11-12 12:00:00,37.7,21.6,30.27,North,355,6.0,10.0,52,0.00,,,0.00,Wunderground v.1.15,2013-11-12 17:00:00,
2013-11-12 12:05:00,37.8,21.7,30.26,NW,321,5.0,10.0,52,0.00,,,0.00,Wunderground v.1.15,2013-11-12 17:05:00,
2013-11-12 12:15:00,37.7,21.6,30.26,West,281,5.0,13.0,52,0.00,,,0.00,Wunderground v.1.15,2013-11-12 17:15:00,
2013-11-12 12:20:00,37.7,22.1,30.26,NNW,342,4.0,10.0,53,0.00,,,0.00,Wunderground v.1.15,2013-11-12 17:20:00,
2013-11-12 12:25:00,37.7,22.1,30.26,NE,41,4.0,10.0,53,0.00,,,0.00,Wunderground v.1.15,2013-11-12 17:25:00,
2013-11-12 12:30:00,37.7,22.5,30.26,NW,323,4.0,4.0,54,0.00,,,0.00,Wunderground v.1.15,2013-11-12 17:30:00,
2013-11-12 12:35:00,37.8,22.2,30.26,WNW,298,5.0,13.0,53,0.00,,,0.00,Wunderground v.1.15,2013-11-12 17:35:00,
2013-11-12 12:45:00,37.8,21.3,30.27,NW,326,5.0,10.0,51,0.00,,,0.00,Wunderground v.1.15,2013-11-12 17:45:00,
2013-11-12 12:50:00,37.8,21.7,30.26,NNW,340,4.0,10.0,52,0.00,,,0.00,Wunderground v.1.15,2013-11-12 17:50:00,
2013-11-12 12:55:00,37.7,21.6,30.26,North,355,4.0,10.0,52,0.00,,,0.00,Wunderground v.1.15,2013-11-12 17:55:00,
2013-11-12 13:00:00,37.7,21.6,30.26,NW,304,3.0,16.0,52,0.00,,,0.00,Wunderground v.1.15,2013-11-12 18:00:00,
2013-11-12 13:05:00,37.6,21.5,30.26,NW,309,4.0,16.0,52,0.00,,,0.00,Wunderground v.1.15,2013-11-12 18:05:00,
2013-11-12 13:15:00,37.5,21.5,30.26,NW,314,5.0,10.0,52,0.00,,,0.00,Wunderground v.1.15,2013-11-12 18:15:00,
2013-11-12 13:20:00,37.5,21.5,30.26,NW,324,5.0,5.0,52,0.00,,,0.00,Wunderground v.1.15,2013-11-12 18:20:00,
2013-11-12 13:25:00,37.5,21.9,30.27,WNW,291,4.0,10.0,53,0.00,,,0.00,Wunderground v.1.15,2013-11-12 18:25:00,
2013-11-12 13:30:00,37.5,21.9,30.27,NW,304,4.0,10.0,53,0.00,,,0.00,Wunderground v.1.15,2013-11-12 18:30:00,
2013-11-12 13:40:00,37.4,21.8,30.27,WNW,282,5.0,10.0,53,0.00,,,0.00,Wunderground v.1.15,2013-11-12 18:40:00,
2013-11-12 13:45:00,37.5,21.9,30.27,WNW,291,5.0,10.0,53,0.00,,,0.00,Wunderground v.1.15,2013-11-12 18:45:00,
2013-11-12 13:50:00,37.5,21.9,30.28,NW,317,6.0,6.0,53,0.00,,,0.00,Wunderground v.1.15,2013-11-12 18:50:00,
2013-11-12 13:55:00,37.6,22.0,30.28,NW,306,5.0,10.0,53,0.00,,,0.00,Wunderground v.1.15,2013-11-12 18:55:00,
2013-11-12 14:05:00,37.6,21.5,30.28,NW,311,5.0,12.0,52,0.00,,,0.00,Wunderground v.1.15,2013-11-12 19:05:00,
2013-11-12 14:10:00,37.6,20.6,30.28,NNW,339,6.0,10.0,50,0.00,,,0.00,Wunderground v.1.15,2013-11-12 19:10:00,
2013-11-12 14:15:00,37.6,20.6,30.28,NW,318,7.0,10.0,50,0.00,,,0.00,Wunderground v.1.15,2013-11-12 19:15:00,
2013-11-12 14:20:00,37.6,20.1,30.28,NNW,338,9.0,9.0,49,0.00,,,0.00,Wunderground v.1.15,2013-11-12 19:20:00,
2013-11-12 14:25:00,37.6,20.1,30.28,NW,323,9.0,10.0,49,0.00,,,0.00,Wunderground v.1.15,2013-11-12 19:25:00,
2013-11-12 14:35:00,37.6,20.1,30.28,WNW,291,5.0,10.0,49,0.00,,,0.00,Wunderground v.1.15,2013-11-12 19:35:00,
2013-11-12 14:40:00,37.6,20.1,30.29,WNW,302,4.0,10.0,49,0.00,,,0.00,Wunderground v.1.15,2013-11-12 19:40:00,
2013-11-12 14:45:00,37.6,20.1,30.29,NNW,334,3.0,10.0,49,0.00,,,0.00,Wunderground v.1.15,2013-11-12 19:45:00,
2013-11-12 14:50:00,37.5,20.1,30.29,NW,315,4.0,12.0,49,0.00,,,0.00,Wunderground v.1.15,2013-11-12 19:50:00,
2013-11-12 14:55:00,37.5,20.1,30.29,NW,310,7.0,12.0,49,0.00,,,0.00,Wunderground v.1.15,2013-11-12 19:55:00,
2013-11-12 15:05:00,37.6,20.6,30.29,NW,315,5.0,10.0,50,0.00,,,0.00,Wunderground v.1.15,2013-11-12 20:05:00,
2013-11-12 15:10:00,37.6,20.6,30.29,WNW,283,4.0,10.0,50,0.00,,,0.00,Wunderground v.1.15,2013-11-12 20:10:00,
2013-11-12 15:15:00,37.6,21.1,30.29,NW,304,3.0,10.0,51,0.00,,,0.00,Wunderground v.1.15,2013-11-12 20:15:00,
2013-11-12 15:20:00,37.7,20.7,30.30,NW,304,3.0,10.0,50,0.00,,,0.00,Wunderground v.1.15,2013-11-12 20:20:00,
2013-11-12 15:30:00,37.7,20.2,30.30,NW,304,4.0,4.0,49,0.00,,,0.00,Wunderground v.1.15,2013-11-12 20:30:00,
2013-11-12 15:35:00,37.7,20.2,30.30,WNW,303,2.0,10.0,49,0.00,,,0.00,Wunderground v.1.15,2013-11-12 20:35:00,
2013-11-12 15:40:00,37.7,20.2,30.30,NW,311,3.0,3.0,49,0.00,,,0.00,Wunderground v.1.15,2013-11-12 20:40:00,
2013-11-12 15:45:00,37.7,20.2,30.30,North,355,3.0,10.0,49,0.00,,,0.00,Wunderground v.1.15,2013-11-12 20:45:00,
2013-11-12 15:50:00,37.7,20.7,30.30,NW,309,2.0,10.0,50,0.00,,,0.00,Wunderground v.1.15,2013-11-12 20:50:00,
2013-11-12 16:00:00,37.7,20.2,30.30,North,5,3.0,3.0,49,0.00,,,0.00,Wunderground v.1.15,2013-11-12 21:00:00,
2013-11-12 16:05:00,37.7,20.7,30.30,WNW,303,2.0,9.0,50,0.00,,,0.00,Wunderground v.1.15,2013-11-12 21:05:00,
2013-11-12 16:10:00,37.7,20.2,30.31,NW,308,2.0,10.0,49,0.00,,,0.00,Wunderground v.1.15,2013-11-12 21:10:00,
2013-11-12 16:15:00,37.7,19.8,30.31,NNW,340,4.0,10.0,48,0.00,,,0.00,Wunderground v.1.15,2013-11-12 21:15:00,
2013-11-12 16:25:00,37.7,20.2,30.31,North,351,3.0,10.0,49,0.00,,,0.00,Wunderground v.1.15,2013-11-12 21:25:00,
2013-11-12 16:30:00,37.8,19.8,30.31,NW,317,3.0,3.0,48,0.00,,,0.00,Wunderground v.1.15,2013-11-12 21:30:00,
2013-11-12 16:35:00,37.7,20.2,30.31,NW,304,2.0,10.0,49,0.00,,,0.00,Wunderground v.1.15,2013-11-12 21:35:00,
2013-11-12 16:40:00,37.7,20.7,30.31,NW,304,2.0,2.0,50,0.00,,,0.00,Wunderground v.1.15,2013-11-12 21:40:00,
2013-11-12 16:45:00,37.6,20.1,30.32,NW,304,1.0,3.0,49,0.00,,,0.00,Wunderground v.1.15,2013-11-12 21:45:00,
2013-11-12 16:55:00,37.5,20.5,30.32,NW,309,1.0,10.0,50,0.00,,,0.00,Wunderground v.1.15,2013-11-12 21:55:00,
2013-11-12 17:00:00,37.5,20.5,30.32,NW,308,2.0,2.0,50,0.00,,,0.00,Wunderground v.1.15,2013-11-12 22:00:00,
2013-11-12 17:05:00,37.5,20.5,30.32,NW,308,2.0,10.0,50,0.00,,,0.00,Wunderground v.1.15,2013-11-12 22:05:00,
2013-11-12 17:10:00,37.6,20.6,30.32,WSW,247,3.0,10.0,50,0.00,,,0.00,Wunderground v.1.15,2013-11-12 22:10:00,
2013-11-12 17:15:00,37.6,20.1,30.32,WNW,288,4.0,10.0,49,0.00,,,0.00,Wunderground v.1.15,2013-11-12 22:15:00,
2013-11-12 17:25:00,37.6,20.1,30.32,NW,315,5.0,6.0,49,0.00,,,0.00,Wunderground v.1.15,2013-11-12 22:25:00,
2013-11-12 17:30:00,37.6,20.1,30.33,West,277,4.0,12.0,49,0.00,,,0.00,Wunderground v.1.15,2013-11-12 22:30:00,
2013-11-12 17:35:00,37.7,20.2,30.32,NNW,348,3.0,12.0,49,0.00,,,0.00,Wunderground v.1.15,2013-11-12 22:35:00,
2013-11-12 17:40:00,37.7,20.2,30.33,NNW,327,4.0,4.0,49,0.00,,,0.00,Wunderground v.1.15,2013-11-12 22:40:00,
2013-11-12 17:50:00,37.7,19.8,30.34,NW,324,4.0,10.0,48,0.00,,,0.00,Wunderground v.1.15,2013-11-12 22:50:00,
2013-11-12 17:55:00,37.6,19.7,30.34,NW,315,3.0,10.0,48,0.00,,,0.00,Wunderground v.1.15,2013-11-12 22:55:00,
2013-11-12 18:00:00,37.6,19.7,30.34,NW,326,4.0,4.0,48,0.00,,,0.00,Wunderground v.1.15,2013-11-12 23:00:00,
2013-11-12 18:10:00,37.6,19.7,30.34,NW,312,3.0,3.0,48,0.00,,,0.00,Wunderground v.1.15,2013-11-12 23:10:00,
2013-11-12 18:15:00,37.5,19.6,30.34,WNW,298,2.0,6.0,48,0.00,,,0.00,Wunderground v.1.15,2013-11-12 23:15:00,
2013-11-12 18:20:00,37.4,19.5,30.35,NW,319,3.0,10.0,48,0.00,,,0.00,Wunderground v.1.15,2013-11-12 23:20:00,
2013-11-12 18:25:00,37.4,19.5,30.35,NW,313,2.0,10.0,48,0.00,,,0.00,Wunderground v.1.15,2013-11-12 23:25:00,
2013-11-12 18:30:00,37.3,19.4,30.35,NW,309,2.0,10.0,48,0.00,,,0.00,Wunderground v.1.15,2013-11-12 23:30:00,
2013-11-12 18:40:00,37.3,19.4,30.36,NW,307,4.0,4.0,48,0.00,,,0.00,Wunderground v.1.15,2013-11-12 23:40:00,
2013-11-12 18:45:00,37.2,19.3,30.36,West,273,3.0,10.0,48,0.00,,,0.00,Wunderground v.1.15,2013-11-12 23:45:00,
2013-11-12 18:50:00,37.0,19.6,30.36,NW,310,3.0,10.0,49,0.00,,,0.00,Wunderground v.1.15,2013-11-12 23:50:00,
2013-11-12 18:55:00,36.9,19.5,30.36,North,360,2.0,10.0,49,0.00,,,0.00,Wunderground v.1.15,2013-11-12 23:55:00,
2013-11-12 19:05:00,36.8,19.4,30.37,WNW,302,3.0,10.0,49,0.00,,,0.00,Wunderground v.1.15,2013-11-13 00:05:00,
2013-11-12 19:10:00,36.7,19.8,30.37,WNW,302,3.0,3.0,50,0.00,,,0.00,Wunderground v.1.15,2013-11-13 00:10:00,
2013-11-12 19:15:00,36.6,19.7,30.37,NW,317,3.0,4.0,50,0.00,,,0.00,Wunderground v.1.15,2013-11-13 00:15:00,
2013-11-12 19:20:00,36.5,19.1,30.37,NW,317,4.0,10.0,49,0.00,,,0.00,Wunderground v.1.15,2013-11-13 00:20:00,
2013-11-12 19:25:00,36.4,19.5,30.37,NW,314,4.0,10.0,50,0.00,,,0.00,Wunderground v.1.15,2013-11-13 00:25:00,
2013-11-12 19:35:00,36.2,19.3,30.38,NW,315,3.0,10.0,50,0.00,,,0.00,Wunderground v.1.15,2013-11-13 00:35:00,
2013-11-12 19:40:00,36.2,19.3,30.38,NW,319,2.0,2.0,50,0.00,,,0.00,Wunderground v.1.15,2013-11-13 00:40:00,
2013-11-12 19:45:00,36.0,19.6,30.38,NW,307,2.0,10.0,51,0.00,,,0.00,Wunderground v.1.15,2013-11-13 00:45:00,
2013-11-12 19:50:00,35.9,19.0,30.38,NW,317,2.0,10.0,50,0.00,,,0.00,Wunderground v.1.15,2013-11-13 00:50:00,
2013-11-12 19:55:00,35.7,18.9,30.38,WNW,291,3.0,10.0,50,0.00,,,0.00,Wunderground v.1.15,2013-11-13 00:55:00,
2013-11-12 20:05:00,35.6,18.8,30.38,NW,314,5.0,10.0,50,0.00,,,0.00,Wunderground v.1.15,2013-11-13 01:05:00,
2013-11-12 20:10:00,35.5,18.7,30.39,WNW,301,4.0,4.0,50,0.00,,,0.00,Wunderground v.1.15,2013-11-13 01:10:00,
2013-11-12 20:15:00,35.5,18.7,30.39,NW,309,3.0,10.0,50,0.00,,,0.00,Wunderground v.1.15,2013-11-13 01:15:00,
2013-11-12 20:20:00,35.3,18.5,30.39,WNW,295,3.0,3.0,50,0.00,,,0.00,Wunderground v.1.15,2013-11-13 01:20:00,
2013-11-12 20:30:00,34.9,18.1,30.40,WNW,294,1.0,1.0,50,0.00,,,0.00,Wunderground v.1.15,2013-11-13 01:30:00,
2013-11-12 20:35:00,34.8,18.5,30.40,NW,304,1.0,2.0,51,0.00,,,0.00,Wunderground v.1.15,2013-11-13 01:35:00,
2013-11-12 20:40:00,34.6,18.3,30.40,WNW,296,1.0,10.0,51,0.00,,,0.00,Wunderground v.1.15,2013-11-13 01:40:00,
2013-11-12 20:45:00,34.4,18.1,30.40,WNW,298,2.0,10.0,51,0.00,,,0.00,Wunderground v.1.15,2013-11-13 01:45:00,
2013-11-12 20:50:00,34.4,18.1,30.40,WNW,299,2.0,10.0,51,0.00,,,0.00,Wunderground v.1.15,2013-11-13 01:50:00,
2013-11-12 21:00:00,34.2,18.4,30.40,WNW,302,2.0,10.0,52,0.00,,,0.00,Wunderground v.1.15,2013-11-13 02:00:00,
2013-11-12 21:05:00,34.2,18.4,30.40,NW,311,3.0,10.0,52,0.00,,,0.00,Wunderground v.1.15,2013-11-13 02:05:00,
2013-11-12 21:10:00,34.1,18.3,30.40,NW,310,4.0,4.0,52,0.00,,,0.00,Wunderground v.1.15,2013-11-13 02:10:00,
2013-11-12 21:15:00,34.0,18.2,30.40,NW,309,3.0,10.0,52,0.00,,,0.00,Wunderground v.1.15,2013-11-13 02:15:00,
2013-11-12 21:25:00,33.9,18.6,30.40,NW,314,3.0,4.0,53,0.00,,,0.00,Wunderground v.1.15,2013-11-13 02:25:00,
2013-11-12 21:30:00,33.9,18.6,30.40,NW,306,4.0,10.0,53,0.00,,,0.00,Wunderground v.1.15,2013-11-13 02:30:00,
2013-11-12 21:35:00,33.9,18.6,30.40,WNW,298,4.0,10.0,53,0.00,,,0.00,Wunderground v.1.15,2013-11-13 02:35:00,
2013-11-12 21:40:00,33.7,18.8,30.41,WNW,292,2.0,10.0,54,0.00,,,0.00,Wunderground v.1.15,2013-11-13 02:40:00,
2013-11-12 21:45:00,33.5,18.6,30.41,WNW,300,2.0,10.0,54,0.00,,,0.00,Wunderground v.1.15,2013-11-13 02:45:00,
2013-11-12 21:55:00,33.3,18.9,30.41,NW,307,1.0,10.0,55,0.00,,,0.00,Wunderground v.1.15,2013-11-13 02:55:00,
2013-11-12 22:00:00,33.1,19.1,30.41,NW,307,1.0,10.0,56,0.00,,,0.00,Wunderground v.1.15,2013-11-13 03:00:00,
2013-11-12 22:05:00,33.0,19.4,30.41,NW,307,1.0,10.0,57,0.00,,,0.00,Wunderground v.1.15,2013-11-13 03:05:00,
2013-11-12 22:10:00,32.8,19.2,30.41,NW,307,0.0,10.0,57,0.00,,,0.00,Wunderground v.1.15,2013-11-13 03:10:00,
2013-11-12 22:15:00,32.6,19.0,30.41,NW,307,0.0,10.0,57,0.00,,,0.00,Wunderground v.1.15,2013-11-13 03:15:00,
2013-11-12 22:25:00,32.3,19.2,30.41,NW,307,0.0,10.0,58,0.00,,,0.00,Wunderground v.1.15,2013-11-13 03:25:00,
2013-11-12 22:30:00,32.1,19.4,30.41,NW,307,0.0,10.0,59,0.00,,,0.00,Wunderground v.1.15,2013-11-13 03:30:00,
2013-11-12 22:35:00,32.0,19.3,30.41,NW,307,1.0,10.0,59,0.00,,,0.00,Wunderground v.1.15,2013-11-13 03:35:00,
2013-11-12 22:40:00,32.0,19.3,30.41,NW,304,2.0,10.0,59,0.00,,,0.00,Wunderground v.1.15,2013-11-13 03:40:00,
2013-11-12 22:45:00,32.0,19.3,30.41,NW,308,2.0,10.0,59,0.00,,,0.00,Wunderground v.1.15,2013-11-13 03:45:00,
2013-11-12 22:55:00,31.9,19.2,30.41,WNW,298,1.0,10.0,59,0.00,,,0.00,Wunderground v.1.15,2013-11-13 03:55:00,
2013-11-12 23:00:00,31.9,19.2,30.41,NW,321,1.0,1.0,59,0.00,,,0.00,Wunderground v.1.15,2013-11-13 04:00:00,
2013-11-12 23:05:00,31.8,19.1,30.41,NW,321,1.0,10.0,59,0.00,,,0.00,Wunderground v.1.15,2013-11-13 04:05:00,
2013-11-12 23:15:00,31.9,19.6,30.41,NW,312,1.0,10.0,60,0.00,,,0.00,Wunderground v.1.15,2013-11-13 04:15:00,
2013-11-12 23:20:00,31.9,20.0,30.41,WNW,294,2.0,2.0,61,0.00,,,0.00,Wunderground v.1.15,2013-11-13 04:20:00,
2013-11-12 23:25:00,31.8,19.9,30.42,WNW,294,1.0,6.0,61,0.00,,,0.00,Wunderground v.1.15,2013-11-13 04:25:00,
2013-11-12 23:30:00,31.9,20.0,30.42,WNW,299,1.0,1.0,61,0.00,,,0.00,Wunderground v.1.15,2013-11-13 04:30:00,
2013-11-12 23:40:00,31.7,19.8,30.42,WNW,299,0.0,10.0,61,0.00,,,0.00,Wunderground v.1.15,2013-11-13 04:40:00,
2013-11-12 23:45:00,31.6,20.1,30.42,WNW,299,0.0,10.0,62,0.00,,,0.00,Wunderground v.1.15,2013-11-13 04:45:00,
2013-11-12 23:50:00,31.5,20.0,30.42,WNW,299,0.0,10.0,62,0.00,,,0.00,Wunderground v.1.15,2013-11-13 04:50:00,
2013-11-12 23:55:00,31.3,20.2,30.42,WNW,299,1.0,10.0,63,0.00,,,0.00,Wunderground v.1.15,2013-11-13 04:55:00,